User: anonymous   Login
Location: Unspecified
(0.0000°N, 0.0000°E)
Time: 18:06:49
(UTC+01:00)
Language:

ISS - Orbit

View from above orbital plane
View from above orbital plane
View from above satellite
View from above satellite

Ground track
Ground track

The orbit data is extracted from the following two-line orbital elements,

1 25544U 98067A   16042.61588738  .00016717  00000-0  10270-3 0  9017
2 25544  51.6448 329.2344 0006399  99.8869 260.3007 15.54629789 25295
Epoch (UTC): 11 February 2016 14:46:52
Eccentricity: 0.0006399
inclination: 51.6448°
perigee height: 399 km
apogee height: 407 km
right ascension of ascending node: 329.2344°
argument of perigee: 99.8869°
revolutions per day: 15.54629789
mean anomaly at epoch: 260.3007°
orbit number at epoch: 2529

The dashed part of the orbit path shows where the satellite is in the earth's shadow,  

DLR